Location: Unspecified
(0.0000°N, 0.0000°E)
Time: 02:31:07
(UTC+00:00)

Hubble Space Telescope - Pass Details

Date: 29 October 2021
Orbit: 535 x 538 km, 28.5° (Epoch: 27 November)

Event Time Altitude Azimuth Distance (km) Brightness Sun altitude
Exits shadow 04:52:53 - 235° (SW) 1,962 3.2 -12.4°
Reaches altitude 10° 04:54:16 10° 217° (SW) 1,783 3.2 -12.0°
Maximum altitude 04:55:03 10° 207° (SSW) 1,756 3.3 -11.8°
Drops below altitude 10° 04:55:50 10° 196° (SSW) 1,784 3.4 -11.6°
Sets 05:00:05 0° 154° (SSE) 2,677 5.0 -10.6°
